owner,sensor,date,latitude,longitude,vertical_datum,wind_speed,wind_to_direction,wind_speed_of_gust,qcFlag 
TABS,ioos:station:wmo:42047:1,2017-07-01T00:00:00Z,27.8966,-93.5973,4.0,5.957692506,157.3951939,7.16,'11111222,11111222,11111222' 
TABS,ioos:station:wmo:42047:1,2017-07-01T00:30:00Z,27.8966,-93.5973,4.0,6.099319634,156.4192977,7.2,'11111222,11111222,11111222' 
TABS,ioos:station:wmo:42047:1,2017-07-01T01:00:00Z,27.8966,-93.5973,4.0,5.824774674,156.9566665,7.1,'11111222,11111222,11111222' 
TABS,ioos:station:wmo:42047:1,2017-07-01T01:30:00Z,27.8966,-93.5973,4.0,5.834552254,158.2717935,6.73,'11111222,11111222,11111222' 
TABS,ioos:station:wmo:42047:1,2017-07-01T02:00:00Z,27.8966,-93.5973,4.0,5.518876697,158.0831812,6.61,'11111222,11111222,11111222' 
TABS,ioos:station:wmo:42047:1,2017-07-01T02:30:00Z,27.8966,-93.5973,4.0,5.778209065,162.4746831,6.71,'11111222,11111222,11111222' 
TABS,ioos:station:wmo:42047:1,2017-07-01T03:00:00Z,27.8966,-93.5973,4.0,5.687477472,160.1634664,6.6,'11111222,11111222,11111222' 
TABS,ioos:station:wmo:42047:1,2017-07-01T03:30:00Z,27.8966,-93.5973,4.0,6.197757659,157.1172826,7.19,'11111222,11111222,11111222' 
TABS,ioos:station:wmo:42047:1,2017-07-01T04:00:00Z,27.8966,-93.5973,4.0,6.482977711,162.1242689,7.38,'11111222,11111222,11111222' 
TABS,ioos:station:wmo:42047:1,2017-07-01T04:30:00Z,27.8966,-93.5973,4.0,7.216785988,160.9125342,8.24,'11111222,11111222,11111222' 
TABS,ioos:station:wmo:42047:1,2017-07-01T05:00:00Z,27.8966,-93.5973,4.0,6.1949092,161.6530469,7.51,'11111222,11111222,11111222' 
TABS,ioos:station:wmo:42047:1,2017-07-01T05:30:00Z,27.8966,-93.5973,4.0,6.545784903,163.3093892,8.19,'11111222,11111222,11111222' 
TABS,ioos:station:wmo:42047:1,2017-07-01T06:00:00Z,27.8966,-93.5973,4.0,7.368310525,165.6999664,8.65,'11111222,11111222,11111222' 
TABS,ioos:station:wmo:42047:1,2017-07-01T06:30:00Z,27.8966,-93.5973,4.0,7.18492867,164.9969133,8.85,'11111222,11111222,11111222' 
TABS,ioos:station:wmo:42047:1,2017-07-01T07:00:00Z,27.8966,-93.5973,4.0,6.187479293,168.8174261,7.34,'11111222,11111222,11111222' 
TABS,ioos:station:wmo:42047:1,2017-07-01T07:30:00Z,27.8966,-93.5973,4.0,6.446859701,165.4466717,7.85,'11111222,11111222,11111222' 
TABS,ioos:station:wmo:42047:1,2017-07-01T08:00:00Z,27.8966,-93.5973,4.0,6.760273663,168.3080067,7.61,'11111222,11111222,11111222' 
TABS,ioos:station:wmo:42047:1,2017-07-01T08:30:00Z,27.8966,-93.5973,4.0,6.677200012,166.4010449,7.76,'11111222,11111222,11111222' 
TABS,ioos:station:wmo:42047:1,2017-07-01T09:00:00Z,27.8966,-93.5973,4.0,6.592002731,169.4232941,7.66,'11111222,11111222,11111222' 
TABS,ioos:station:wmo:42047:1,2017-07-01T09:30:00Z,27.8966,-93.5973,4.0,5.832400878,163.7714796,6.64,'11111222,11111222,11111222' 
TABS,ioos:station:wmo:42047:1,2017-07-01T10:00:00Z,27.8966,-93.5973,4.0,5.806694412,158.1622062,6.59,'11111222,11111222,11111222' 
TABS,ioos:station:wmo:42047:1,2017-07-01T10:30:00Z,27.8966,-93.5973,4.0,6.185677004,161.0380591,7.09,'11111222,11111222,11111222' 
TABS,ioos:station:wmo:42047:1,2017-07-01T11:00:00Z,27.8966,-93.5973,4.0,5.843988364,157.7801114,6.77,'11111222,11111222,11111222' 
TABS,ioos:station:wmo:42047:1,2017-07-01T11:30:00Z,27.8966,-93.5973,4.0,5.594568795,159.4921594,6.59,'11111222,11111222,11111222' 
TABS,ioos:station:wmo:42047:1,2017-07-01T12:00:00Z,27.8966,-93.5973,4.0,6.37546861,158.9498442,7.36,'11111222,11111222,11111222' 
TABS,ioos:station:wmo:42047:1,2017-07-01T12:30:00Z,27.8966,-93.5973,4.0,5.786129967,151.3977205,6.78,'11111222,11111222,11111222' 
TABS,ioos:station:wmo:42047:1,2017-07-01T13:00:00Z,27.8966,-93.5973,4.0,5.702017187,153.6599091,6.39,'11111222,11111222,11111222' 
TABS,ioos:station:wmo:42047:1,2017-07-01T13:30:00Z,27.8966,-93.5973,4.0,5.458003298,143.1933843,6.33,'11111222,11111222,11111222' 
TABS,ioos:station:wmo:42047:1,2017-07-01T14:00:00Z,27.8966,-93.5973,4.0,5.527838637,145.7640179,6.33,'11111222,11111222,11111222' 
TABS,ioos:station:wmo:42047:1,2017-07-01T14:30:00Z,27.8966,-93.5973,4.0,6.04028145,144.7052056,6.86,'11111222,11111222,11111222' 
TABS,ioos:station:wmo:42047:1,2017-07-01T15:00:00Z,27.8966,-93.5973,4.0,5.912596722,143.9444231,6.75,'11111222,11111222,11111222' 
TABS,ioos:station:wmo:42047:1,2017-07-01T15:30:00Z,27.8966,-93.5973,4.0,5.296489403,143.9092949,6.35,'11111222,11111222,11111222' 
TABS,ioos:station:wmo:42047:1,2017-07-01T16:00:00Z,27.8966,-93.5973,4.0,4.214569966,135.577098,5.36,'11111222,11111222,11111222' 
TABS,ioos:station:wmo:42047:1,2017-07-01T16:30:00Z,27.8966,-93.5973,4.0,4.630388753,130.7089911,5.41,'11111222,11111222,11111222' 
TABS,ioos:station:wmo:42047:1,2017-07-01T17:00:00Z,27.8966,-93.5973,4.0,3.780013227,130.6016206,4.38,'11111222,11111222,11111222' 
TABS,ioos:station:wmo:42047:1,2017-07-01T17:30:00Z,27.8966,-93.5973,4.0,3.924601891,124.0953191,4.62,'11111222,11111222,11111222' 
TABS,ioos:station:wmo:42047:1,2017-07-01T18:00:00Z,27.8966,-93.5973,4.0,4.261267417,122.3477888,4.87,'11111222,11111222,11111222' 
TABS,ioos:station:wmo:42047:1,2017-07-01T18:30:00Z,27.8966,-93.5973,4.0,5.128284313,133.4991182,5.78,'11111222,11111222,11111222' 
TABS,ioos:station:wmo:42047:1,2017-07-01T19:00:00Z,27.8966,-93.5973,4.0,5.271375532,129.4579821,6.21,'11111222,11111222,11111222' 
TABS,ioos:station:wmo:42047:1,2017-07-01T19:30:00Z,27.8966,-93.5973,4.0,5.382675914,129.7241259,6.76,'11111222,11111222,11111222' 
TABS,ioos:station:wmo:42047:1,2017-07-01T20:00:00Z,27.8966,-93.5973,4.0,5.411247546,131.7042074,6.42,'11111222,11111222,11111222' 
TABS,ioos:station:wmo:42047:1,2017-07-01T20:30:00Z,27.8966,-93.5973,4.0,5.862371534,132.0965036,6.76,'11111222,11111222,11111222' 
TABS,ioos:station:wmo:42047:1,2017-07-01T21:00:00Z,27.8966,-93.5973,4.0,5.426868342,132.9842219,6.16,'11111222,11111222,11111222' 
TABS,ioos:station:wmo:42047:1,2017-07-01T21:30:00Z,27.8966,-93.5973,4.0,5.045284928,137.1689603,5.87,'11111222,11111222,11111222' 
TABS,ioos:station:wmo:42047:1,2017-07-01T22:00:00Z,27.8966,-93.5973,4.0,4.382476469,137.8673307,5.35,'11111222,11111222,11111222' 
TABS,ioos:station:wmo:42047:1,2017-07-01T22:30:00Z,27.8966,-93.5973,4.0,4.196057674,126.5698289,4.82,'11111222,11111222,11111222' 
TABS,ioos:station:wmo:42047:1,2017-07-01T23:00:00Z,27.8966,-93.5973,4.0,4.862766702,132.4166753,6.06,'11111222,11111222,11111222' 
TABS,ioos:station:wmo:42047:1,2017-07-01T23:30:00Z,27.8966,-93.5973,4.0,4.565139647,141.8501223,5.5,'11111222,11111222,11111222' 
TABS,ioos:station:wmo:42047:1,2017-07-02T00:00:00Z,27.8966,-93.5973,4.0,5.69606882,142.8487514,6.93,'11111222,11111222,11111222' 
TABS,ioos:station:wmo:42047:1,2017-07-02T00:30:00Z,27.8966,-93.5973,4.0,5.061788222,145.8707021,6.17,'11111222,11111222,11111222' 
TABS,ioos:station:wmo:42047:1,2017-07-02T01:00:00Z,27.8966,-93.5973,4.0,5.402851099,146.0160988,6.27,'11111222,11111222,11111222' 
TABS,ioos:station:wmo:42047:1,2017-07-02T01:30:00Z,27.8966,-93.5973,4.0,5.196498821,143.9242833,6.41,'11111222,11111222,11111222' 
TABS,ioos:station:wmo:42047:1,2017-07-02T02:00:00Z,27.8966,-93.5973,4.0,5.40120357,145.1038661,6.55,'11111222,11111222,11111222' 
TABS,ioos:station:wmo:42047:1,2017-07-02T02:30:00Z,27.8966,-93.5973,4.0,5.226107538,138.1027351,6.37,'11111222,11111222,11111222' 
TABS,ioos:station:wmo:42047:1,2017-07-02T03:00:00Z,27.8966,-93.5973,4.0,5.119570294,139.2776219,6.11,'11111222,11111222,11111222' 
TABS,ioos:station:wmo:42047:1,2017-07-02T03:30:00Z,27.8966,-93.5973,4.0,3.44681012,132.5311912,4.13,'11111222,11111222,11111222' 
TABS,ioos:station:wmo:42047:1,2017-07-02T04:00:00Z,27.8966,-93.5973,4.0,4.217534825,129.8058989,4.99,'11111222,11111222,11111222' 
TABS,ioos:station:wmo:42047:1,2017-07-02T04:30:00Z,27.8966,-93.5973,4.0,3.300560558,123.2570895,4.12,'11111222,11111222,11111222' 
TABS,ioos:station:wmo:42047:1,2017-07-02T05:00:00Z,27.8966,-93.5973,4.0,3.469236227,112.7218659,4.27,'11111222,11111222,11111222' 
TABS,ioos:station:wmo:42047:1,2017-07-02T05:30:00Z,27.8966,-93.5973,4.0,3.94848072,112.7988278,4.57,'11111222,11111222,11111222' 
TABS,ioos:station:wmo:42047:1,2017-07-02T06:00:00Z,27.8966,-93.5973,4.0,4.801885047,113.3086288,5.46,'11111222,11111222,11111222' 
TABS,ioos:station:wmo:42047:1,2017-07-02T06:30:00Z,27.8966,-93.5973,4.0,5.10405721,121.5416626,5.89,'11111222,11111222,11111222' 
TABS,ioos:station:wmo:42047:1,2017-07-02T07:00:00Z,27.8966,-93.5973,4.0,5.437435057,130.8987827,6.15,'11111222,11111222,11111222' 
TABS,ioos:station:wmo:42047:1,2017-07-02T07:30:00Z,27.8966,-93.5973,4.0,5.255130826,131.760623,6.06,'11111222,11111222,11111222' 
TABS,ioos:station:wmo:42047:1,2017-07-02T08:00:00Z,27.8966,-93.5973,4.0,5.437876424,134.4787833,6.3,'11111222,11111222,11111222' 
TABS,ioos:station:wmo:42047:1,2017-07-02T08:30:00Z,27.8966,-93.5973,4.0,5.602088896,140.9411706,6.27,'11111222,11111222,11111222' 
TABS,ioos:station:wmo:42047:1,2017-07-02T09:00:00Z,27.8966,-93.5973,4.0,5.219386937,136.0870946,6.27,'11111222,11111222,11111222' 
TABS,ioos:station:wmo:42047:1,2017-07-02T09:30:00Z,27.8966,-93.5973,4.0,5.602901034,129.7142469,6.8,'11111222,11111222,11111222' 
TABS,ioos:station:wmo:42047:1,2017-07-02T10:00:00Z,27.8966,-93.5973,4.0,5.386213884,127.3808373,6.13,'11111222,11111222,11111222' 
TABS,ioos:station:wmo:42047:1,2017-07-02T10:30:00Z,27.8966,-93.5973,4.0,5.702017187,129.0210762,6.65,'11111222,11111222,11111222' 
TABS,ioos:station:wmo:42047:1,2017-07-02T11:00:00Z,27.8966,-93.5973,4.0,5.585704969,125.4545465,6.54,'11111222,11111222,11111222' 
TABS,ioos:station:wmo:42047:1,2017-07-02T11:30:00Z,27.8966,-93.5973,4.0,5.26157771,128.9832631,5.97,'11111222,11111222,11111222' 
TABS,ioos:station:wmo:42047:1,2017-07-02T12:00:00Z,27.8966,-93.5973,4.0,4.923921202,133.1898492,5.97,'11111222,11111222,11111222' 
TABS,ioos:station:wmo:42047:1,2017-07-02T12:30:00Z,27.8966,-93.5973,4.0,4.890010225,129.1908083,5.67,'11111222,11111222,11111222' 
TABS,ioos:station:wmo:42047:1,2017-07-02T13:00:00Z,27.8966,-93.5973,4.0,4.039814352,133.0945088,4.9,'11111222,11111222,11111222' 
TABS,ioos:station:wmo:42047:1,2017-07-02T13:30:00Z,27.8966,-93.5973,4.0,3.882795385,136.1481623,4.48,'11111222,11111222,11111222' 
TABS,ioos:station:wmo:42047:1,2017-07-02T14:00:00Z,27.8966,-93.5973,4.0,3.500185709,135.1160643,4.17,'11111222,11111222,11111222' 
TABS,ioos:station:wmo:42047:1,2017-07-02T14:30:00Z,27.8966,-93.5973,4.0,3.673486083,132.4628625,4.19,'11111222,11111222,11111222' 
TABS,ioos:station:wmo:42047:1,2017-07-02T15:00:00Z,27.8966,-93.5973,4.0,3.842199891,124.9312765,4.46,'11111222,11111222,11111222' 
TABS,ioos:station:wmo:42047:1,2017-07-02T15:30:00Z,27.8966,-93.5973,4.0,3.470518693,122.4082272,3.93,'11111222,11111222,11111222' 
TABS,ioos:station:wmo:42047:1,2017-07-02T16:00:00Z,27.8966,-93.5973,4.0,3.320391543,124.6954933,3.98,'11111222,11111222,11111222' 
TABS,ioos:station:wmo:42047:1,2017-07-02T16:30:00Z,27.8966,-93.5973,4.0,3.395055228,124.4393297,3.88,'11111222,11111222,11111222' 
TABS,ioos:station:wmo:42047:1,2017-07-02T17:00:00Z,27.8966,-93.5973,4.0,3.76920416,123.8590498,4.37,'11111222,11111222,11111222' 
TABS,ioos:station:wmo:42047:1,2017-07-02T17:30:00Z,27.8966,-93.5973,4.0,4.051876109,117.0080828,4.73,'11111222,11111222,11111222' 
TABS,ioos:station:wmo:42047:1,2017-07-02T18:00:00Z,27.8966,-93.5973,4.0,3.825454221,112.2745968,4.51,'11111222,11111222,11111222' 
TABS,ioos:station:wmo:42047:1,2017-07-02T18:30:00Z,27.8966,-93.5973,4.0,3.965955118,114.1095398,4.57,'11111222,11111222,11111222' 
TABS,ioos:station:wmo:42047:1,2017-07-02T19:00:00Z,27.8966,-93.5973,4.0,3.806231732,115.6902214,4.53,'11111222,11111222,11111222' 
TABS,ioos:station:wmo:42047:1,2017-07-02T19:30:00Z,27.8966,-93.5973,4.0,3.820287947,109.0993193,4.49,'11111222,11111222,11111222' 
TABS,ioos:station:wmo:42047:1,2017-07-02T20:00:00Z,27.8966,-93.5973,4.0,3.698553771,116.1497294,4.34,'11111222,11111222,11111222' 
TABS,ioos:station:wmo:42047:1,2017-07-02T20:30:00Z,27.8966,-93.5973,4.0,3.680013587,106.4162819,4.29,'11111222,11111222,11111222' 
TABS,ioos:station:wmo:42047:1,2017-07-02T21:00:00Z,27.8966,-93.5973,4.0,3.692424678,105.3915979,4.27,'11111222,11111222,11111222' 
TABS,ioos:station:wmo:42047:1,2017-07-02T21:30:00Z,27.8966,-93.5973,4.0,4.064295757,109.5498873,4.84,'11111222,11111222,11111222' 
TABS,ioos:station:wmo:42047:1,2017-07-02T22:00:00Z,27.8966,-93.5973,4.0,4.369805488,121.1439966,5.4,'11111222,11111222,11111222' 
TABS,ioos:station:wmo:42047:1,2017-07-02T22:30:00Z,27.8966,-93.5973,4.0,5.167591315,129.9762522,6.16,'11111222,11111222,11111222' 
TABS,ioos:station:wmo:42047:1,2017-07-02T23:00:00Z,27.8966,-93.5973,4.0,4.304811262,121.5119352,4.93,'11111222,11111222,11111222' 
TABS,ioos:station:wmo:42047:1,2017-07-02T23:30:00Z,27.8966,-93.5973,4.0,4.858981375,136.2511136,5.65,'11111222,11111222,11111222' 
TABS,ioos:station:wmo:42047:1,2017-07-03T00:00:00Z,27.8966,-93.5973,4.0,4.535118521,139.9197413,5.41,'11111222,11111222,11111222' 
TABS,ioos:station:wmo:42047:1,2017-07-03T00:30:00Z,27.8966,-93.5973,4.0,4.641519148,138.7563196,5.15,'11111222,11111222,11111222' 
TABS,ioos:station:wmo:42047:1,2017-07-03T01:00:00Z,27.8966,-93.5973,4.0,4.490267253,134.5491782,5.29,'11111222,11111222,11111222' 
TABS,ioos:station:wmo:42047:1,2017-07-03T01:30:00Z,27.8966,-93.5973,4.0,4.741181287,137.2226137,5.78,'11111222,11111222,11111222' 
TABS,ioos:station:wmo:42047:1,2017-07-03T02:00:00Z,27.8966,-93.5973,4.0,4.720857973,137.4898628,5.44,'11111222,11111222,11111222' 
TABS,ioos:station:wmo:42047:1,2017-07-03T02:30:00Z,27.8966,-93.5973,4.0,4.796269384,136.6899627,5.76,'11111222,11111222,11111222' 
TABS,ioos:station:wmo:42047:1,2017-07-03T03:00:00Z,27.8966,-93.5973,4.0,5.511533362,141.7788469,6.34,'11111222,11111222,11111222' 
TABS,ioos:station:wmo:42047:1,2017-07-03T03:30:00Z,27.8966,-93.5973,4.0,5.649637156,144.5097727,6.78,'11111222,11111222,11111222' 
TABS,ioos:station:wmo:42047:1,2017-07-03T04:00:00Z,27.8966,-93.5973,4.0,5.733846876,145.2293001,6.53,'11111222,11111222,11111222' 
TABS,ioos:station:wmo:42047:1,2017-07-03T04:30:00Z,27.8966,-93.5973,4.0,5.982048144,143.36027,7.55,'11111222,11111222,11111222' 
TABS,ioos:station:wmo:42047:1,2017-07-03T05:00:00Z,27.8966,-93.5973,4.0,6.238469364,138.0540557,7.45,'11111222,11111222,11111222' 
TABS,ioos:station:wmo:42047:1,2017-07-03T05:30:00Z,27.8966,-93.5973,4.0,7.184538955,143.8322037,8.08,'11111222,11111222,11111222' 
TABS,ioos:station:wmo:42047:1,2017-07-03T06:00:00Z,27.8966,-93.5973,4.0,7.084186615,145.5250917,8.32,'11111222,11111222,11111222' 
TABS,ioos:station:wmo:42047:1,2017-07-03T06:30:00Z,27.8966,-93.5973,4.0,7.024884341,158.3654526,8.62,'11111222,11111222,11111222' 
TABS,ioos:station:wmo:42047:1,2017-07-03T07:00:00Z,27.8966,-93.5973,4.0,7.324022119,157.777568,8.36,'11111222,11111222,11111222' 
TABS,ioos:station:wmo:42047:1,2017-07-03T07:30:00Z,27.8966,-93.5973,4.0,7.572753792,164.2938854,8.87,'11111222,11111222,11111222' 
TABS,ioos:station:wmo:42047:1,2017-07-03T08:00:00Z,27.8966,-93.5973,4.0,7.375940618,159.5260382,8.51,'11111222,11111222,11111222' 
TABS,ioos:station:wmo:42047:1,2017-07-03T08:30:00Z,27.8966,-93.5973,4.0,7.028833474,166.3396388,8.59,'11111222,11111222,11111222' 
TABS,ioos:station:wmo:42047:1,2017-07-03T09:00:00Z,27.8966,-93.5973,4.0,6.97108313,165.2064815,7.83,'11111222,11111222,11111222' 
TABS,ioos:station:wmo:42047:1,2017-07-03T09:30:00Z,27.8966,-93.5973,4.0,6.92847025,163.998056,7.88,'11111222,11111222,11111222' 
TABS,ioos:station:wmo:42047:1,2017-07-03T10:00:00Z,27.8966,-93.5973,4.0,6.810411148,166.0660219,7.83,'11111222,11111222,11111222' 
TABS,ioos:station:wmo:42047:1,2017-07-03T10:30:00Z,27.8966,-93.5973,4.0,6.906417306,170.4151634,7.74,'11111222,11111222,11111222' 
TABS,ioos:station:wmo:42047:1,2017-07-03T11:00:00Z,27.8966,-93.5973,4.0,6.807826379,170.7869602,7.65,'11111222,11111222,11111222' 
TABS,ioos:station:wmo:42047:1,2017-07-03T11:30:00Z,27.8966,-93.5973,4.0,6.176026231,172.2768446,7.05,'11111222,11111222,11111222' 
TABS,ioos:station:wmo:42047:1,2017-07-03T12:00:00Z,27.8966,-93.5973,4.0,6.031757621,167.5538569,6.87,'11111222,11111222,11111222' 
TABS,ioos:station:wmo:42047:1,2017-07-03T12:30:00Z,27.8966,-93.5973,4.0,5.77894454,169.9348206,6.49,'11111222,11111222,11111222' 
TABS,ioos:station:wmo:42047:1,2017-07-03T13:00:00Z,27.8966,-93.5973,4.0,5.982140085,171.7346767,6.7,'11111222,11111222,11111222' 
TABS,ioos:station:wmo:42047:1,2017-07-03T13:30:00Z,27.8966,-93.5973,4.0,5.612004989,181.5318147,6.25,'11111222,11111222,11111222' 
TABS,ioos:station:wmo:42047:1,2017-07-03T14:00:00Z,27.8966,-93.5973,4.0,5.868730698,176.8745424,6.71,'11111222,11111222,11111222' 
TABS,ioos:station:wmo:42047:1,2017-07-03T14:30:00Z,27.8966,-93.5973,4.0,5.146571674,182.8959657,6.16,'11111222,11111222,11111222' 
TABS,ioos:station:wmo:42047:1,2017-07-03T15:00:00Z,27.8966,-93.5973,4.0,4.341808379,184.226847,5.24,'11111222,11111222,11111222' 
TABS,ioos:station:wmo:42047:1,2017-07-03T15:30:00Z,27.8966,-93.5973,4.0,4.188078318,183.559469,4.95,'11111222,11111222,11111222' 
TABS,ioos:station:wmo:42047:1,2017-07-03T16:00:00Z,27.8966,-93.5973,4.0,4.253010698,177.8442161,4.83,'11111222,11111222,11111222' 
TABS,ioos:station:wmo:42047:1,2017-07-03T16:30:00Z,27.8966,-93.5973,4.0,3.664273461,172.157598,4.34,'11111222,11111222,11111222' 
TABS,ioos:station:wmo:42047:1,2017-07-03T17:00:00Z,27.8966,-93.5973,4.0,3.39249171,173.3989224,4.22,'11111222,11111222,11111222' 
TABS,ioos:station:wmo:42047:1,2017-07-03T17:30:00Z,27.8966,-93.5973,4.0,3.791952004,160.7529939,4.54,'11111222,11111222,11111222' 
TABS,ioos:station:wmo:42047:1,2017-07-03T18:00:00Z,27.8966,-93.5973,4.0,3.647423748,163.1054064,4.64,'11111222,11111222,11111222' 
TABS,ioos:station:wmo:42047:1,2017-07-03T18:30:00Z,27.8966,-93.5973,4.0,3.688278731,160.1896874,4.35,'11111222,11111222,11111222' 
TABS,ioos:station:wmo:42047:1,2017-07-03T19:00:00Z,27.8966,-93.5973,4.0,3.06804498,152.8505922,3.89,'11111222,11111222,11111222' 
TABS,ioos:station:wmo:42047:1,2017-07-03T19:30:00Z,27.8966,-93.5973,4.0,3.176476035,155.0487566,3.99,'11111222,11111222,11111222' 
TABS,ioos:station:wmo:42047:1,2017-07-03T20:00:00Z,27.8966,-93.5973,4.0,3.905304085,152.0572414,4.65,'11111222,11111222,11111222' 
TABS,ioos:station:wmo:42047:1,2017-07-03T20:30:00Z,27.8966,-93.5973,4.0,4.076039745,142.8773777,5.28,'11111222,11111222,11111222' 
TABS,ioos:station:wmo:42047:1,2017-07-03T21:00:00Z,27.8966,-93.5973,4.0,4.050975191,131.7983026,4.68,'11111222,11111222,11111222' 
TABS,ioos:station:wmo:42047:1,2017-07-03T21:30:00Z,27.8966,-93.5973,4.0,4.473175606,139.07947,5.1,'11111222,11111222,11111222' 
TABS,ioos:station:wmo:42047:1,2017-07-03T22:00:00Z,27.8966,-93.5973,4.0,4.734395421,137.3114417,5.76,'11111222,11111222,11111222' 
TABS,ioos:station:wmo:42047:1,2017-07-03T22:30:00Z,27.8966,-93.5973,4.0,4.995137636,146.5965385,5.86,'11111222,11111222,11111222' 
TABS,ioos:station:wmo:42047:1,2017-07-03T23:00:00Z,27.8966,-93.5973,4.0,4.821877228,140.3012298,5.45,'11111222,11111222,11111222' 
TABS,ioos:station:wmo:42047:1,2017-07-03T23:30:00Z,27.8966,-93.5973,4.0,4.486301372,143.7945185,5.19,'11111222,11111222,11111222' 
TABS,ioos:station:wmo:42047:1,2017-07-04T00:00:00Z,27.8966,-93.5973,4.0,4.385259399,149.2830059,5.04,'11111222,11111222,11111222' 
TABS,ioos:station:wmo:42047:1,2017-07-04T00:30:00Z,27.8966,-93.5973,4.0,4.259060929,154.9996296,4.86,'11111222,11111222,11111222' 
TABS,ioos:station:wmo:42047:1,2017-07-04T01:00:00Z,27.8966,-93.5973,4.0,3.83337971,147.1393338,4.49,'11111222,11111222,11111222' 
TABS,ioos:station:wmo:42047:1,2017-07-04T01:30:00Z,27.8966,-93.5973,4.0,3.852531635,144.082264,4.52,'11111222,11111222,11111222' 
TABS,ioos:station:wmo:42047:1,2017-07-04T02:00:00Z,27.8966,-93.5973,4.0,3.965476012,148.194004,4.82,'11111222,11111222,11111222' 
TABS,ioos:station:wmo:42047:1,2017-07-04T02:30:00Z,27.8966,-93.5973,4.0,5.014957627,148.3703279,5.68,'11111222,11111222,11111222' 
TABS,ioos:station:wmo:42047:1,2017-07-04T03:00:00Z,27.8966,-93.5973,4.0,6.075927913,151.7059076,6.93,'11111222,11111222,11111222' 
TABS,ioos:station:wmo:42047:1,2017-07-04T03:30:00Z,27.8966,-93.5973,4.0,6.046924838,152.6300841,7.05,'11111222,11111222,11111222' 
TABS,ioos:station:wmo:42047:1,2017-07-04T04:00:00Z,27.8966,-93.5973,4.0,6.529356783,153.2390042,7.52,'11111222,11111222,11111222' 
TABS,ioos:station:wmo:42047:1,2017-07-04T04:30:00Z,27.8966,-93.5973,4.0,7.648954177,152.2626672,8.74,'11111222,11111222,11111222' 
TABS,ioos:station:wmo:42047:1,2017-07-04T05:00:00Z,27.8966,-93.5973,4.0,6.585020881,156.7445499,7.52,'11111222,11111222,11111222' 
TABS,ioos:station:wmo:42047:1,2017-07-04T05:30:00Z,27.8966,-93.5973,4.0,6.262587325,160.4079744,7.1,'11111222,11111222,11111222' 
TABS,ioos:station:wmo:42047:1,2017-07-04T06:00:00Z,27.8966,-93.5973,4.0,5.806375806,166.2511936,7.15,'11111222,11111222,11111222' 
TABS,ioos:station:wmo:42047:1,2017-07-04T06:30:00Z,27.8966,-93.5973,4.0,6.296641962,164.2423369,7.1,'11111222,11111222,11111222' 
TABS,ioos:station:wmo:42047:1,2017-07-04T07:00:00Z,27.8966,-93.5973,4.0,5.749173854,173.3078558,6.89,'11111222,11111222,11111222' 
TABS,ioos:station:wmo:42047:1,2017-07-04T07:30:00Z,27.8966,-93.5973,4.0,5.240954112,181.0935061,6.2,'11111222,11111222,11111222' 
TABS,ioos:station:wmo:42047:1,2017-07-04T08:00:00Z,27.8966,-93.5973,4.0,6.029610269,173.4291732,7.02,'11111222,11111222,11111222' 
TABS,ioos:station:wmo:42047:1,2017-07-04T08:30:00Z,27.8966,-93.5973,4.0,5.140671162,188.0514828,6.07,'11111222,11111222,11111222' 
TABS,ioos:station:wmo:42047:1,2017-07-04T09:00:00Z,27.8966,-93.5973,4.0,5.396091178,174.3635878,5.96,'11111222,11111222,11111222' 
TABS,ioos:station:wmo:42047:1,2017-07-04T09:30:00Z,27.8966,-93.5973,4.0,5.983385329,165.7782019,7.13,'11111222,11111222,11111222' 
TABS,ioos:station:wmo:42047:1,2017-07-04T10:00:00Z,27.8966,-93.5973,4.0,6.450713139,168.0109413,7.27,'11111222,11111222,11111222' 
TABS,ioos:station:wmo:42047:1,2017-07-04T10:30:00Z,27.8966,-93.5973,4.0,5.884598542,166.8377733,6.75,'11111222,11111222,11111222' 
TABS,ioos:station:wmo:42047:1,2017-07-04T11:00:00Z,27.8966,-93.5973,4.0,5.616262102,161.307218,6.57,'11111222,11111222,11111222' 
TABS,ioos:station:wmo:42047:1,2017-07-04T11:30:00Z,27.8966,-93.5973,4.0,5.825607264,163.6495605,6.62,'11111222,11111222,11111222' 
TABS,ioos:station:wmo:42047:1,2017-07-04T12:00:00Z,27.8966,-93.5973,4.0,5.806315527,165.8443349,6.49,'11111222,11111222,11111222' 
TABS,ioos:station:wmo:42047:1,2017-07-04T12:30:00Z,27.8966,-93.5973,4.0,4.995858285,164.3226602,6.04,'11111222,11111222,11111222' 
TABS,ioos:station:wmo:42047:1,2017-07-04T13:00:00Z,27.8966,-93.5973,4.0,4.544854233,177.3518591,5.55,'11111222,11111222,11111222' 
TABS,ioos:station:wmo:42047:1,2017-07-04T13:30:00Z,27.8966,-93.5973,4.0,4.844151112,175.6196584,5.59,'11111222,11111222,11111222' 
TABS,ioos:station:wmo:42047:1,2017-07-04T14:00:00Z,27.8966,-93.5973,4.0,4.060369441,175.9045496,4.57,'11111222,11111222,11111222' 
TABS,ioos:station:wmo:42047:1,2017-07-04T14:30:00Z,27.8966,-93.5973,4.0,3.4505217,179.0038649,4.42,'11111222,11111222,11111222' 
TABS,ioos:station:wmo:42047:1,2017-07-04T15:00:00Z,27.8966,-93.5973,4.0,4.023853874,163.0964275,4.89,'11111222,11111222,11111222' 
TABS,ioos:station:wmo:42047:1,2017-07-04T15:30:00Z,27.8966,-93.5973,4.0,3.571736272,163.2395458,4.25,'11111222,11111222,11111222' 
TABS,ioos:station:wmo:42047:1,2017-07-04T16:00:00Z,27.8966,-93.5973,4.0,3.070016287,180.1868406,3.77,'11111222,11111222,11111222' 
TABS,ioos:station:wmo:42047:1,2017-07-04T16:30:00Z,27.8966,-93.5973,4.0,2.74854507,167.1774949,3.43,'11111222,11111222,11111222' 
TABS,ioos:station:wmo:42047:1,2017-07-04T17:00:00Z,27.8966,-93.5973,4.0,2.823915721,161.6294656,3.51,'11111222,11111222,11111222' 
TABS,ioos:station:wmo:42047:1,2017-07-04T17:30:00Z,27.8966,-93.5973,4.0,3.25332138,146.4079124,4.02,'11111222,11111222,11111222' 
TABS,ioos:station:wmo:42047:1,2017-07-04T18:00:00Z,27.8966,-93.5973,4.0,2.861118662,141.5281414,3.87,'11111222,11111222,11111222' 
TABS,ioos:station:wmo:42047:1,2017-07-04T18:30:00Z,27.8966,-93.5973,4.0,3.75446401,141.0544934,4.94,'11111222,11111222,11111222' 